Starlink 30943

operational
NORAD ID: 58449 Int'l Des: 2023-183 Owner: SPXS Country: US Constellation: starlink
LEOCIRCULAR

Über Starlink 30943

Beschreibung wird geladen...

Live-Position

3D-Globus wird geladen...

Nächste Überflüge

Höhenverlauf

Altitude vs Time

uPlot chart will show altitude changes over time

Zweizeiliger Elementsatz

1 58449U 23183N 25258.34569084 .00000450 00000-0 48344-4 0 9994
2 58449 43.0031 250.4205 0001346 281.6007 78.4684 15.02540203100638
Epoch: 15. Sept. 2025 • Age: 20 hours

Aktueller Status

Höhe 560.4 km
Geschwindigkeit 7.59 km/s
Subsatellitenpunkt 29.51°N, 27.07°W
Startdatum 28. Nov. 2023
Alter 1.7 years
Typ internet

Technische Details

Klassifizierung Payload
Masse 730.00 kg
Trockenmasse 700.00 kg
Gesamtmasse 730.00 kg
Länge 0.30 m
Durchmesser 4.10 m
Spannweite 29.00 m
Form Box + pan
Hersteller SPXS
Bus-Typ Starlink V2M
Phasenstatus In Orbit
Besitzer/Staat SPXS/US

Große Konstellationen

Loading constellations...